Tracking 32964 objects as of 20-Jan-2026
HD Live streaming from Space Station
objects crossing your sky now

KOREASAT 116

Track KOREASAT 116 now!


NORAD ID: 45920
Int'l Code: 2020-048A
Perigee: 35,789.8 km
Apogee: 35,796.7 km
Inclination: 0.0 °
Period: 1,436.1 minutes
Semi major axis: 42164 km
RCS: Unknown
Launch date: July 20, 2020
Source: United States (US)
Launch site: AIR FORCE EASTERN TEST RANGE (AFETR)
Your satellite tracking list
Your tracking list is empty




NASA's NSSDC Master Catalog

Two Line Element Set (TLE):
1 45920U 20048A   26019.96063721 -.00000348  00000-0  00000-0 0  9992
2 45920   0.0173  15.2793 0000823 275.5199 290.5659  1.00273629 20155
Source of the keplerian elements: AFSPC